User: anonymous   Login
Location: Norwich
(52.6280°N, 1.3030°E)
Time: 21:46:42
(UTC+00:00)
Language:

APEX - Orbit

View from above orbital plane
View from above orbital plane
View from above satellite
View from above satellite

Ground track
Ground track

The orbit data is extracted from the following two-line orbital elements,

1 23191U 94046A   16337.93793739 +.00005228 +00000-0 +18084-3 0  9990
2 23191 069.9245 313.1442 0615087 158.5453 204.2714 14.35073850088337
Epoch (UTC): 02 December 2016 22:30:37
Eccentricity: 0.0615087
inclination: 69.9245°
perigee height: 335 km
apogee height: 1215 km
right ascension of ascending node: 313.1442°
argument of perigee: 158.5453°
revolutions per day: 14.35073850
mean anomaly at epoch: 204.2714°
orbit number at epoch: 8833

The dashed part of the orbit path shows where the satellite is in the earth's shadow,  

DLR